Tracking 35275 objects as of 8-Sep-2026
HD Live streaming from Space Station
objects crossing your sky now

STARLINK-33989

Track STARLINK-33989 now!
10-day predictions
STARLINK-33989 is classified as:


NORAD ID: 63929
Int'l Code: 2025-098D
Launch date: May 13, 2025
Source: United States (US)
Launch site: AIR FORCE WESTERN TEST RANGE (AFWTR)
Your satellite tracking list
Your tracking list is empty




NASA's NSSDC Master Catalog

Two Line Element Set (TLE):
1 63929U 25098D   26251.58335648  .00058150  00000-0  20153-2 0  9993
2 63929  70.0009 172.5362 0003395 273.1445 237.1081 15.29520751  5777
Source of the keplerian elements: AFSPC